Tracking 20942 objects as of 13-Jul-2020
HD Live streaming from Space Station
objects crossing your sky now

THOR ABLESTAR DEB

Track THOR ABLESTAR DEB now!
10-day predictions


NORAD ID: 3164
Int'l Code: 1961-015HZ
Perigee: 869.5 km
Apogee: 934.8 km
Inclination: 66.7 °
Period: 102.9 minutes
Semi major axis: 7273 km
RCS: 0.0289 m2 (small)
Launch date: June 29, 1961
Source: United States (US)
Launch site: AIR FORCE EASTERN TEST RANGE (AFETR)

Note: This is SATELLITE DEBRIS
aabbcc
Your satellite tracking list
Your tracking list is empty




NASA's NSSDC Master Catalog

Two Line Element Set (TLE):
1  3164U 61015HZ  20194.14240313 +.00000054 +00000-0 +89832-4 0  9994
2  3164 066.7498 084.3544 0044879 130.9791 229.5188 13.99646975784290
Source of the keplerian elements: AFSPC